Temp
-11 -12 -10 -9 -10 -10 -10 -12 -11 -10 -11 -13 -12 -13 -12 -13 -11 -11 -11 -11 -10 -9 -10 -11 -10 -10 -10 -10 -11 -11 -11 -12 -12 -13 -13 -13 -13 -14 -13 -13 -12 -12 -12 -12
-12 -11 -8 -10 -10 -11 -11 -11 -10 -11 -11 -13 -13 -13 -13 -12 -11 -10 -9 -9 -10 -10 -10 -11 -10 -10 -10 -10 -11 -12 -12 -12 -12 -12 -13 -13 -13 -13 -13 -12 -12 -12 -12 -12
-12 -8 -11 -11 -11 -11 -10 -10 -10 -10 -11 -13 -13 -12 -10 -11 -10 -9 -9 -9 -10 -10 -10 -10 -10 -10 -10 -11 -11 -12 -11 -12 -12 -13 -13 -13 -13 -12 -12 -12 -12 -12 -12 -13
-12 -10 -10 -12 -11 -10 -10 -11 -10 -11 -11 -13 -13 -10 -10 -10 -9 -10 -10 -10 -10 -11 -10 -10 -10 -10 -11 -11 -11 -12 -11 -11 -12 -12 -12 -12 -12 -12 -12 -12 -12 -12 -13 -13
-9 -10 -10 -12 -9 -12 -8 -13 -12 -12 -11 -12 -11 -10 -9 -9 -10 -10 -10 -10 -10 -10 -10 -10 -10 -11 -11 -11 -11 -11 -11 -11 -11 -11 -12 -12 -12 -12 -12 -12 -12 -13 -13 -13
-11 -12 -12 -10 -11 -12 -12 -13 -12 -14 -12 -11 -11 -11 -8 -9 -11 -10 -10 -10 -10 -10 -10 -10 -11 -11 -12 -11 -11 -11 -11 -11 -11 -11 -11 -11 -12 -12 -12 -12 -12 -12 -13 -13
-12 -13 -12 -12 -13 -12 -12 -14 -14 -13 -11 -9 -11 -12 -8 -10 -11 -10 -10 -10 -10 -10 -10 -10 -11 -12 -11 -11 -11 -11 -11 -11 -11 -11 -11 -11 -12 -11 -12 -12 -12 -13 -12 -12
-17 -16 -13 -10 -10 -11 -12 -11 -9 -9 -11 -12 -12 -10 -9 -10 -11 -11 -10 -10 -10 -10 -10 -11 -12 -11 -11 -11 -11 -10 -10 -11 -11 -11 -11 -11 -11 -11 -12 -12 -12 -12 -12 -12
-21 -18 -15 -14 -12 -13 -11 -13 -9 -13 -13 -13 -12 -12 -12 -10 -11 -10 -10 -11 -11 -11 -11 -11 -11 -11 -11 -11 -10 -10 -10 -11 -11 -11 -11 -11 -11 -11 -12 -12 -12 -12 -12 -12
-20 -21 -17 -16 -14 -13 -15 -10 -14 -11 -13 -12 -12 -12 -12 -11 -11 -11 -11 -11 -11 -11 -11 -12 -11 -11 -11 -10 -10 -10 -11 -11 -11 -11 -11 -11 -11 -12 -11 -12 -12 -12 -12 -12
-21 -20 -18 -18 -17 -14 -13 -15 -12 -12 -13 -13 -12 -12 -12 -12 -12 -12 -12 -12 -11 -12 -12 -11 -11 -11 -10 -10 -10 -11 -11 -11 -11 -11 -11 -11 -11 -11 -11 -11 -12 -12 -12 -12
-22 -19 -18 -18 -18 -17 -15 -15 -12 -13 -12 -13 -12 -12 -11 -12 -11 -12 -11 -12 -12 -12 -12 -12 -11 -11 -10 -10 -11 -11 -11 -11 -11 -11 -11 -11 -11 -11 -11 -11 -12 -12 -12 -12
-21 -19 -17 -17 -18 -18 -16 -16 -15 -13 -14 -14 -12 -13 -12 -12 -11 -11 -12 -12 -12 -12 -12 -11 -11 -10 -10 -10 -11 -11 -11 -11 -11 -11 -11 -11 -12 -11 -11 -11 -12 -12 -12 -12
-21 -20 -17 -17 -17 -17 -16 -16 -15 -13 -14 -14 -12 -13 -12 -12 -12 -12 -12 -12 -12 -12 -12 -12 -11 -10 -10 -10 -11 -11 -11 -11 -11 -11 -11 -11 -12 -12 -12 -12 -12 -12 -12 -12
-21 -20 -18 -16 -17 -17 -16 -16 -15 -15 -14 -13 -13 -13 -13 -13 -12 -12 -12 -12 -12 -12 -12 -11 -10 -10 -10 -11 -11 -11 -11 -11 -11 -11 -11 -11 -12 -12 -12 -12 -12 -12 -12 -13
-21 -19 -19 -17 -17 -16 -16 -16 -15 -15 -15 -14 -13 -13 -13 -13 -13 -13 -12 -12 -12 -12 -12 -11 -10 -10 -10 -11 -11 -11 -11 -11 -11 -11 -11 -11 -12 -12 -12 -12 -12 -12 -12 -13
-20 -20 -19 -17 -17 -16 -16 -16 -16 -15 -14 -15 -13 -13 -13 -14 -14 -12 -12 -12 -12 -12 -11 -11 -10 -10 -10 -11 -11 -11 -11 -11 -11 -11 -11 -11 -11 -12 -12 -13 -12 -13 -13 -12
-20 -19 -19 -17 -17 -17 -16 -16 -16 -15 -15 -15 -14 -15 -14 -13 -12 -12 -13 -13 -12 -12 -11 -10 -10 -10 -11 -11 -11 -11 -11 -11 -11 -11 -11 -11 -11 -12 -13 -12 -12 -13 -13 -13
-20 -20 -18 -18 -17 -16 -16 -16 -16 -16 -15 -13 -13 -14 -12 -12 -12 -13 -13 -12 -12 -11 -10 -11 -10 -11 -11 -11 -11 -11 -11 -11 -11 -11 -11 -11 -12 -12 -13 -13 -13 -12 -13 -13
-20 -19 -19 -18 -17 -16 -16 -16 -15 -14 -13 -12 -12 -12 -12 -13 -13 -12 -12 -12 -12 -12 -10 -11 -11 -11 -11 -11 -11 -11 -11 -11 -11 -11 -11 -12 -12 -12 -12 -12 -12 -12 -13 -13
-20 -19 -20 -19 -17 -16 -15 -16 -16 -15 -13 -12 -12 -12 -12 -13 -13 -12 -12 -12 -12 -12 -11 -11 -10 -11 -11 -11 -11 -11 -11 -11 -11 -12 -12 -12 -12 -12 -12 -12 -12 -12 -13 -12
-20 -19 -19 -19 -17 -17 -16 -16 -15 -14 -13 -13 -12 -13 -12 -13 -13 -12 -12 -12 -12 -11 -12 -11 -11 -11 -11 -11 -11 -11 -11 -11 -11 -12 -12 -12 -12 -12 -12 -12 -12 -13 -13 -12
-20 -19 -18 -18 -18 -16 -16 -15 -14 -14 -13 -13 -13 -13 -13 -13 -13 -12 -13 -12 -12 -11 -12 -11 -11 -11 -11 -11 -11 -11 -11 -11 -12 -12 -12 -12 -12 -12 -12 -12 -12 -12 -12 -13
-20 -19 -19 -18 -18 -17 -16 -15 -15 -14 -14 -13 -13 -13 -13 -13 -13 -13 -13 -13 -12 -12 -12 -12 -12 -11 -11 -11 -11 -11 -11 -11 -12 -12 -12 -12 -12 -12 -12 -12 -12 -13 -12 -12
-20 -19 -19 -18 -18 -18 -17 -16 -15 -14 -14 -14 -14 -13 -13 -13 -13 -13 -13 -13 -12 -12 -12 -12 -12 -11 -11 -11 -11 -11 -12 -11 -12 -12 -12 -12 -12 -12 -12 -12 -12 -12 -13 -12
-19 -19 -19 -19 -18 -17 -17 -17 -15 -15 -14 -14 -14 -14 -13 -13 -13 -13 -13 -13 -12 -12 -11 -12 -12 -12 -11 -11 -11 -11 -11 -12 -11 -11 -12 -12 -12 -12 -12 -12 -12 -12 -12 -12
Height
5719 5719 5731 5747 5753 5761 5763 5761 5764 5770 5777 5774 5774 5776 5780 5776 5774 5776 5779 5780 5780 5782 5780 5779 5782 5784 5783 5781 5779 5778 5777 5775 5774 5773 5770 5767 5764 5761 5757 5753 5748 5742 5737 5731
5695 5706 5734 5738 5742 5746 5751 5752 5756 5763 5769 5769 5766 5765 5768 5768 5766 5770 5771 5770 5766 5768 5770 5772 5774 5777 5776 5775 5774 5772 5771 5770 5768 5766 5764 5762 5759 5755 5751 5746 5742 5737 5730 5724
5678 5712 5721 5721 5730 5733 5738 5744 5751 5756 5760 5756 5756 5752 5757 5758 5759 5759 5758 5756 5756 5761 5763 5764 5766 5769 5769 5768 5767 5767 5765 5764 5763 5761 5758 5755 5752 5748 5744 5739 5733 5729 5722 5716
5666 5696 5702 5703 5714 5726 5729 5738 5745 5746 5746 5744 5753 5742 5748 5750 5754 5749 5749 5748 5750 5753 5756 5757 5759 5763 5762 5763 5762 5761 5760 5759 5757 5755 5753 5750 5747 5742 5738 5733 5725 5720 5716 5710
5668 5673 5684 5682 5708 5713 5724 5730 5734 5735 5737 5740 5741 5739 5742 5748 5744 5743 5742 5741 5744 5747 5750 5752 5753 5756 5757 5758 5757 5755 5755 5754 5752 5750 5747 5744 5741 5737 5732 5726 5720 5716 5710 5705
5647 5655 5662 5679 5694 5701 5716 5720 5724 5727 5732 5727 5735 5733 5737 5744 5737 5736 5735 5735 5737 5741 5744 5746 5749 5752 5752 5752 5751 5751 5749 5748 5747 5745 5742 5739 5736 5731 5727 5721 5717 5712 5706 5702
5628 5631 5644 5662 5673 5690 5700 5707 5713 5719 5720 5720 5729 5727 5736 5737 5732 5730 5730 5730 5732 5735 5740 5742 5745 5747 5747 5747 5746 5745 5744 5743 5742 5739 5736 5734 5731 5727 5722 5717 5713 5708 5704 5701
5603 5610 5628 5651 5660 5676 5685 5695 5704 5710 5716 5720 5722 5722 5730 5731 5728 5727 5727 5728 5730 5733 5736 5739 5742 5743 5743 5743 5742 5741 5740 5739 5736 5734 5732 5730 5726 5723 5718 5714 5710 5706 5703 5700
5591 5597 5622 5631 5644 5656 5673 5678 5705 5711 5717 5719 5725 5724 5725 5726 5727 5726 5726 5728 5730 5732 5734 5737 5738 5739 5739 5739 5739 5737 5736 5734 5732 5730 5728 5726 5722 5719 5715 5711 5707 5704 5702 5701
5582 5591 5603 5621 5633 5643 5660 5686 5688 5698 5708 5715 5720 5723 5722 5723 5724 5724 5726 5726 5728 5731 5732 5734 5735 5735 5735 5735 5735 5734 5732 5729 5728 5726 5725 5722 5719 5716 5712 5709 5705 5703 5702 5701
5573 5578 5592 5608 5613 5632 5649 5662 5676 5694 5702 5710 5716 5720 5718 5719 5723 5723 5726 5725 5727 5729 5730 5732 5732 5733 5732 5733 5732 5730 5727 5726 5725 5723 5721 5718 5716 5713 5710 5707 5704 5703 5702 5702
5567 5574 5583 5602 5614 5627 5644 5657 5670 5678 5691 5703 5713 5718 5710 5714 5717 5720 5723 5723 5726 5727 5729 5729 5730 5730 5729 5729 5728 5726 5725 5724 5722 5721 5718 5716 5713 5711 5709 5706 5704 5703 5703 5702
5559 5567 5581 5596 5606 5619 5633 5649 5663 5676 5691 5696 5708 5710 5709 5711 5714 5718 5719 5721 5724 5726 5727 5727 5728 5728 5727 5727 5725 5724 5724 5722 5721 5718 5716 5714 5712 5710 5708 5706 5705 5703 5703 5703
5554 5562 5572 5588 5608 5619 5629 5644 5657 5668 5678 5690 5698 5705 5706 5707 5711 5713 5716 5720 5722 5723 5724 5725 5725 5725 5725 5725 5723 5724 5723 5721 5719 5717 5715 5714 5712 5710 5708 5706 5705 5704 5704 5704
5552 5563 5571 5582 5590 5609 5627 5639 5650 5659 5673 5687 5693 5701 5702 5706 5706 5711 5715 5718 5720 5721 5722 5722 5722 5723 5724 5723 5723 5723 5722 5719 5718 5716 5715 5713 5711 5709 5707 5706 5705 5705 5705 5705
5551 5561 5566 5570 5586 5595 5620 5633 5645 5656 5666 5681 5689 5694 5699 5699 5702 5707 5711 5716 5718 5718 5719 5720 5720 5721 5722 5722 5722 5722 5721 5719 5717 5717 5715 5713 5710 5708 5707 5706 5706 5706 5706 5706
5550 5555 5564 5573 5581 5594 5612 5624 5638 5651 5661 5672 5681 5687 5693 5696 5693 5694 5705 5710 5714 5716 5717 5718 5719 5720 5722 5721 5721 5721 5721 5720 5719 5717 5716 5713 5710 5708 5707 5707 5706 5706 5706 5707
5550 5550 5562 5571 5582 5594 5609 5621 5637 5649 5658 5665 5673 5676 5678 5679 5687 5697 5703 5707 5711 5713 5715 5716 5718 5720 5720 5720 5721 5721 5721 5720 5719 5718 5717 5714 5712 5710 5709 5708 5707 5707 5707 5708
5554 5557 5566 5570 5584 5596 5605 5614 5627 5641 5639 5648 5657 5662 5663 5681 5691 5696 5702 5706 5710 5712 5714 5716 5718 5720 5720 5719 5720 5721 5722 5721 5720 5719 5718 5717 5715 5714 5713 5711 5709 5708 5708 5708
5555 5558 5565 5569 5584 5591 5599 5609 5618 5622 5631 5645 5654 5663 5673 5684 5690 5692 5699 5704 5708 5710 5713 5715 5718 5720 5720 5720 5719 5722 5722 5722 5721 5721 5720 5720 5719 5717 5716 5714 5713 5711 5709 5709
5557 5559 5564 5571 5581 5590 5592 5603 5617 5627 5633 5643 5651 5658 5668 5675 5678 5689 5695 5701 5705 5708 5712 5714 5717 5719 5720 5720 5721 5722 5723 5723 5723 5722 5722 5722 5722 5721 5720 5718 5717 5715 5714 5712
5555 5560 5564 5573 5582 5589 5590 5601 5611 5615 5629 5638 5645 5654 5663 5672 5677 5688 5694 5699 5703 5707 5711 5713 5715 5718 5719 5721 5722 5722 5723 5724 5724 5724 5724 5724 5724 5724 5723 5723 5721 5720 5718 5717
5555 5558 5563 5573 5576 5576 5589 5598 5606 5615 5627 5634 5642 5650 5659 5668 5675 5684 5691 5697 5701 5705 5709 5712 5714 5717 5718 5721 5722 5723 5724 5725 5725 5725 5726 5726 5726 5726 5726 5726 5726 5726 5725 5723
5553 5557 5562 5570 5571 5575 5585 5597 5607 5617 5626 5632 5640 5646 5656 5664 5673 5682 5688 5694 5699 5703 5707 5711 5713 5715 5717 5719 5721 5723 5724 5725 5726 5726 5727 5727 5727 5728 5728 5728 5729 5730 5731 5730
5554 5557 5563 5568 5571 5580 5588 5597 5607 5615 5623 5629 5637 5644 5654 5662 5670 5678 5684 5690 5695 5700 5705 5709 5711 5714 5716 5718 5720 5722 5724 5725 5726 5727 5728 5728 5729 5730 5731 5731 5732 5733 5734 5735
5555 5558 5562 5566 5571 5580 5589 5597 5605 5613 5621 5628 5634 5641 5650 5659 5667 5674 5681 5687 5692 5696 5701 5707 5710 5713 5715 5717 5718 5720 5722 5725 5727 5727 5728 5729 5730 5732 5733 5734 5736 5736 5737 5739
Wind_Speed
66 69 64 52 56 54 58 61 58 51 46 39 41 43 48 52 45 46 47 49 53 46 44 40 38 35 34 29 29 30 30 33 32 35 32 34 37 40 40 40 35 37 37 36
73 70 43 55 55 56 55 58 52 51 48 39 40 43 46 46 48 42 43 43 47 45 38 35 34 31 33 28 26 26 31 32 32 32 34 37 39 40 40 38 35 36 39 38
77 53 57 60 56 56 56 52 50 46 44 37 40 52 47 48 43 39 39 44 45 37 33 31 31 28 30 25 24 28 31 30 32 34 36 37 37 38 35 37 36 35 37 34
72 65 64 64 59 53 51 49 46 47 49 46 39 50 44 42 34 38 34 34 31 31 29 28 29 27 27 24 25 29 33 30 32 33 32 32 33 32 34 33 35 32 30 30
66 66 70 70 55 55 46 42 42 44 45 40 43 47 41 33 34 29 27 29 26 28 27 25 25 25 23 24 27 30 31 30 30 30 28 28 28 28 30 31 26 28 26 22
65 63 68 69 64 59 49 44 45 42 38 44 40 47 36 25 29 27 25 20 19 26 28 24 22 22 22 24 27 29 29 28 30 28 26 25 24 26 24 23 24 21 19 14
63 69 69 68 72 65 57 51 43 43 43 45 39 41 28 21 26 20 21 22 23 26 20 22 20 20 21 24 25 27 26 25 25 23 20 21 21 21 20 21 18 16 13 11
59 65 70 67 70 72 67 62 55 52 40 38 35 35 24 21 19 13 13 16 17 21 20 17 17 18 21 22 24 24 22 20 20 17 18 17 18 15 18 18 13 10 10 7
40 53 61 70 72 71 70 63 49 35 28 24 21 21 19 20 14 11 14 18 15 12 12 13 15 18 21 22 22 19 19 20 16 15 13 14 14 15 14 12 5 6 7 3
35 37 58 64 72 71 59 52 50 50 39 29 21 19 16 19 19 15 12 12 11 12 12 12 16 19 19 20 18 18 18 15 13 12 13 14 13 11 9 6 3 4 5 1
35 43 51 55 59 71 69 51 57 44 37 32 24 17 20 23 13 12 10 13 6 7 10 12 16 17 21 16 16 15 12 11 12 11 14 12 11 6 7 3 2 2 2 2
33 35 39 49 40 59 62 53 55 54 45 30 23 16 22 25 26 22 19 20 10 9 11 15 16 18 14 14 12 9 9 10 9 11 10 7 5 3 1 3 2 1 2 5
40 34 45 46 41 47 47 52 47 49 33 35 24 16 20 21 24 22 24 16 12 9 14 16 15 15 10 11 7 6 8 8 8 7 3 4 3 1 2 3 3 1 2 5
40 49 39 40 37 42 47 49 46 51 43 32 35 16 28 26 23 25 22 18 15 15 13 14 15 12 9 8 4 5 6 6 6 5 2 3 2 2 3 2 3 2 4 6
25 57 50 32 49 43 48 47 44 49 41 31 26 27 22 22 31 27 24 20 18 14 13 13 10 9 9 4 4 4 5 5 4 2 1 4 5 4 2 1 3 3 5 7
26 54 57 31 52 43 43 41 43 41 39 32 24 29 30 20 23 34 30 25 20 15 13 9 8 8 5 4 4 3 2 2 2 1 3 5 3 3 2 2 3 5 5 7
34 52 48 29 38 38 43 44 44 39 41 34 34 35 35 33 36 45 35 29 25 18 13 9 9 9 4 3 4 2 1 3 2 3 5 6 3 5 3 3 2 6 7 7
38 62 42 24 41 28 32 38 39 36 36 35 33 30 44 53 45 37 34 31 27 20 14 10 10 10 4 4 4 1 3 4 5 5 7 8 8 6 5 5 6 8 6 7
22 55 48 23 29 29 33 44 40 39 50 53 51 50 58 38 37 39 32 30 26 21 15 11 11 10 5 5 5 3 4 4 6 7 8 11 10 8 7 7 7 4 2 3
21 53 51 26 28 26 27 42 49 54 53 49 43 44 39 40 39 40 35 31 26 21 16 14 13 12 7 5 5 5 5 5 6 7 7 10 11 11 11 8 8 8 8 6
23 34 46 41 27 34 23 39 41 40 46 41 40 42 48 53 49 39 36 32 28 22 16 16 14 15 10 6 5 5 6 6 7 7 7 10 11 11 10 13 12 9 12 12
13 24 34 42 24 32 17 30 45 52 45 42 43 42 52 54 49 39 34 32 29 22 17 18 15 15 14 8 4 4 6 7 8 8 7 8 11 11 10 12 16 15 15 14
14 24 34 46 48 30 38 35 48 45 44 41 43 45 56 56 50 40 37 35 30 24 20 18 16 13 14 13 8 3 4 6 8 9 8 6 7 9 11 10 13 15 17 20
17 23 32 46 62 21 50 39 41 40 36 40 41 47 60 56 50 41 40 35 30 26 21 19 15 15 12 13 12 7 3 5 8 9 8 7 7 8 11 11 11 13 14 16
17 20 32 38 48 47 33 42 40 39 36 35 37 45 60 53 48 43 38 34 31 27 23 22 16 16 13 11 13 12 8 5 8 9 9 7 7 9 11 12 12 12 13 16
16 17 26 31 31 39 38 33 42 39 34 33 35 44 57 54 49 44 40 36 31 29 26 26 18 16 16 12 12 13 12 8 7 8 9 9 9 10 12 12 13 15 17 19
Wind_Direction
239 238 239 245 248 255 255 257 262 266 270 268 276 258 264 278 274 266 263 265 273 272 274 272 271 277 270 277 289 288 287 288 290 283 288 290 295 300 300 302 304 301 304 303
238 241 249 243 242 244 247 253 256 262 267 255 259 264 265 271 275 276 275 269 270 269 269 267 268 269 265 280 282 282 287 287 292 292 286 289 291 294 298 301 300 302 302 299
239 244 242 242 241 241 243 248 254 264 267 259 257 268 275 276 280 276 268 264 268 270 261 259 261 258 263 279 275 277 286 292 289 286 282 285 289 294 299 301 302 305 302 302
238 235 235 236 237 240 245 249 251 253 257 258 267 271 268 274 285 282 284 279 270 257 253 253 255 253 267 276 274 273 283 285 287 285 287 288 290 298 302 300 305 303 307 307
235 235 232 231 235 235 238 241 248 252 255 261 260 265 271 281 278 289 289 280 267 250 244 247 247 251 272 277 274 275 280 285 284 287 288 287 297 300 300 304 306 311 313 310
229 230 228 234 230 229 230 234 237 242 252 254 260 262 268 280 288 288 262 253 243 230 235 234 241 257 269 269 272 277 286 284 281 283 284 293 296 300 306 308 312 314 318 327
228 221 221 222 226 227 224 225 229 238 244 257 257 259 278 280 282 265 245 242 228 223 223 232 242 259 259 266 277 285 288 281 282 281 287 297 297 304 310 312 316 316 329 334
223 219 217 218 221 225 223 226 233 237 241 252 267 264 267 285 269 245 235 226 211 217 226 237 246 253 266 273 287 284 279 280 286 288 297 294 304 303 311 314 315 322 332 335
221 222 213 214 215 214 220 222 229 219 246 246 251 270 275 275 222 209 229 226 232 226 222 233 241 259 270 278 279 273 274 285 285 296 292 298 303 305 316 322 311 336 338 350
218 218 208 209 215 212 207 221 213 218 221 234 232 232 251 272 217 225 218 217 223 220 226 234 252 266 278 276 273 277 280 283 288 291 295 303 297 311 315 327 331 354 338 46
211 211 208 197 216 211 203 206 212 219 215 224 233 247 245 230 193 212 211 231 217 223 233 250 264 275 279 271 276 283 282 286 292 286 302 302 298 321 320 342 15 9 10 182
207 199 194 199 210 208 208 205 207 210 211 211 230 228 241 226 201 188 183 225 226 219 241 258 272 280 273 270 281 282 284 289 286 297 305 296 302 334 6 25 18 348 88 174
206 177 171 193 187 206 199 204 210 205 203 209 196 221 216 210 210 218 214 216 221 230 245 257 274 274 269 265 277 278 286 288 297 315 303 282 321 43 126 62 43 292 117 171
207 188 167 173 195 192 189 199 205 207 202 210 205 208 201 207 214 212 211 212 218 238 254 262 268 264 265 259 259 284 290 291 308 314 286 278 15 66 68 59 77 67 137 159
208 192 186 171 175 183 193 191 195 204 197 191 202 193 195 197 209 210 212 213 222 241 246 256 264 255 240 237 236 287 293 310 310 286 304 294 344 33 33 95 114 100 133 157
207 176 199 157 169 167 195 193 199 197 195 194 194 188 196 182 211 214 211 215 222 223 235 252 248 231 218 213 213 283 318 18 46 42 350 337 347 65 19 205 138 143 130 158
178 189 200 152 163 162 183 185 198 196 193 190 185 184 193 198 207 208 208 208 211 211 217 228 221 201 195 206 203 267 140 100 80 36 5 359 86 88 73 145 129 157 146 157
184 192 189 149 152 175 179 177 191 191 194 196 189 193 196 204 214 205 206 206 217 206 209 212 212 189 177 169 198 184 151 104 75 48 31 53 69 69 84 96 123 148 144 151
185 197 182 182 150 177 172 180 173 193 199 197 195 192 208 204 208 207 206 213 220 219 205 207 204 184 160 154 170 176 166 105 69 70 63 69 74 84 88 94 96 115 153 192
192 197 199 165 160 158 186 190 184 190 198 197 198 203 209 199 196 208 210 216 215 210 204 206 201 186 156 121 145 183 162 120 89 91 90 91 80 69 71 78 70 83 96 93
193 202 209 209 173 181 185 198 195 198 205 201 198 199 198 196 205 201 206 212 210 204 197 205 204 198 174 142 120 179 161 135 109 104 101 97 93 81 78 78 81 90 93 90
185 188 195 205 185 207 199 189 189 197 194 194 195 196 194 195 203 203 208 210 209 194 188 206 205 209 192 178 145 150 176 151 126 113 112 107 104 97 92 95 90 90 92 91
175 177 180 190 200 189 195 191 196 195 191 194 189 193 192 194 201 202 207 208 207 194 188 203 204 214 203 198 189 170 172 177 144 125 116 110 116 112 108 109 105 99 93 82
175 178 177 187 204 182 194 200 198 188 189 188 187 192 190 195 200 202 206 205 203 198 186 199 204 215 208 197 197 203 189 184 173 144 127 115 113 114 119 118 121 117 109 104
179 177 183 192 205 214 192 198 194 189 187 184 186 191 192 196 197 201 202 198 200 203 191 196 202 215 213 203 192 202 205 205 189 170 152 141 127 128 125 126 125 122 120 117
157 184 186 195 199 201 207 203 197 195 190 184 184 186 190 199 197 201 204 203 201 203 200 199 205 215 219 207 203 201 198 212 207 185 177 164 155 149 142 136 132 128 127 127